Hourly Weather Aba-el-Baul

Today, 1 March, Monday

Time Temperature Precipitation Wind Pressure Humidity
00:00 +17°C° 0 mm 2 mps 756 mmHg 71%
01:00 +17°C° 0 mm 2 mps 756 mmHg 72%
02:00 +16°C° 0 mm 2 mps 756 mmHg 73%
03:00 +16°C° 0 mm 2 mps 755 mmHg 76%
04:00 +16°C° 0 mm 2 mps 756 mmHg 76%
05:00 +16°C° 0 mm 2 mps 756 mmHg 76%
06:00 +16°C° 0 mm 2 mps 756 mmHg 76%
07:00 +19°C° 0 mm 3 mps 757 mmHg 65%
08:00 +21°C° 0 mm 4 mps 757 mmHg 53%
09:00 +25°C° 0 mm 5 mps 757 mmHg 42%
10:00 +26°C° 0 mm 5 mps 757 mmHg 37%
11:00 +28°C° 0 mm 5 mps 757 mmHg 33%
12:00 +29°C° 0 mm 5 mps 756 mmHg 28%
13:00 +29°C° 0 mm 4 mps 756 mmHg 28%
14:00 +30°C° 0 mm 4 mps 755 mmHg 27%
15:00 +30°C° 0 mm 4 mps 754 mmHg 27%
16:00 +27°C° 0 mm 4 mps 754 mmHg 36%
17:00 +25°C° 0 mm 5 mps 755 mmHg 44%
18:00 +21°C° 0 mm 5 mps 755 mmHg 53%
19:00 +21°C° 0 mm 5 mps 755 mmHg 55%
20:00 +21°C° 0 mm 5 mps 755 mmHg 58%
21:00 +21°C° 0 mm 6 mps 756 mmHg 60%
22:00 +20°C° 0 mm 5 mps 756 mmHg 60%
23:00 +20°C° 0 mm 4 mps 756 mmHg 61%

Tomorrow, 2 March, Tuesday

Time Temperature Precipitation Wind Pressure Humidity
00:00 +20°C° 0 mm 3 mps 756 mmHg 61%
01:00 +20°C° 0 mm 3 mps 756 mmHg 61%
02:00 +19°C° 0 mm 3 mps 755 mmHg 62%
03:00 +19°C° 0 mm 4 mps 755 mmHg 62%
04:00 +19°C° 0 mm 3 mps 756 mmHg 61%
05:00 +19°C° 0 mm 3 mps 757 mmHg 60%
06:00 +19°C° 0 mm 2 mps 757 mmHg 60%
07:00 +21°C° 0 mm 3 mps 758 mmHg 51%
08:00 +25°C° 0 mm 3 mps 758 mmHg 43%
09:00 +27°C° 0 mm 4 mps 759 mmHg 34%
10:00 +28°C° 0 mm 4 mps 758 mmHg 31%
11:00 +29°C° 0 mm 5 mps 758 mmHg 28%
12:00 +32°C° 0 mm 6 mps 757 mmHg 25%
13:00 +32°C° 0 mm 6 mps 757 mmHg 26%
14:00 +32°C° 0 mm 6 mps 756 mmHg 26%
15:00 +32°C° 0 mm 6 mps 756 mmHg 27%
16:00 +28°C° 0 mm 6 mps 756 mmHg 35%
17:00 +26°C° 0 mm 6 mps 756 mmHg 44%
18:00 +22°C° 0 mm 6 mps 757 mmHg 52%
19:00 +21°C° 0 mm 6 mps 757 mmHg 57%
20:00 +20°C° 0 mm 6 mps 758 mmHg 62%
21:00 +19°C° 0 mm 5 mps 758 mmHg 67%
22:00 +19°C° 0 mm 5 mps 758 mmHg 69%
23:00 +19°C° 0 mm 5 mps 758 mmHg 71%

Day after tomorrow, 3 March, Wednesday

Time Temperature Precipitation Wind Pressure Humidity
00:00 +17°C° 0 mm 5 mps 758 mmHg 74%
01:00 +17°C° 0 mm 5 mps 758 mmHg 74%
02:00 +17°C° 0 mm 5 mps 757 mmHg 74%
03:00 +17°C° 0 mm 6 mps 757 mmHg 74%
04:00 +17°C° 0 mm 5 mps 757 mmHg 75%
05:00 +16°C° 0 mm 5 mps 758 mmHg 76%
06:00 +16°C° 0 mm 5 mps 758 mmHg 76%
07:00 +19°C° 0 mm 5 mps 758 mmHg 64%
08:00 +22°C° 0 mm 6 mps 759 mmHg 52%
09:00 +24°C° 0 mm 6 mps 759 mmHg 39%
10:00 +27°C° 0 mm 6 mps 758 mmHg 33%
11:00 +29°C° 0 mm 7 mps 758 mmHg 27%
12:00 +32°C° 0 mm 7 mps 758 mmHg 21%
13:00 +32°C° 0 mm 7 mps 757 mmHg 21%
14:00 +30°C° 0 mm 6 mps 757 mmHg 21%
15:00 +30°C° 0 mm 6 mps 756 mmHg 21%
16:00 +28°C° 0 mm 6 mps 756 mmHg 26%
17:00 +26°C° 0 mm 5 mps 757 mmHg 31%
18:00 +23°C° 0 mm 5 mps 757 mmHg 37%
19:00 +21°C° 0 mm 4 mps 757 mmHg 43%
20:00 +20°C° 0 mm 4 mps 758 mmHg 49%
21:00 +19°C° 0 mm 4 mps 758 mmHg 55%
22:00 +18°C° 0 mm 4 mps 758 mmHg 56%
23:00 +18°C° 0 mm 3 mps 758 mmHg 57%

4 March, Thursday

Time Temperature Precipitation Wind Pressure Humidity
00:00 +18°C° 0 mm 3 mps 757 mmHg 58%
01:00 +18°C° 0 mm 4 mps 757 mmHg 58%
02:00 +18°C° 0 mm 4 mps 756 mmHg 57%
03:00 +17°C° 0 mm 4 mps 756 mmHg 56%
04:00 +17°C° 0 mm 4 mps 756 mmHg 54%
05:00 +17°C° 0 mm 4 mps 756 mmHg 52%
06:00 +17°C° 0 mm 4 mps 756 mmHg 51%
07:00 +20°C° 0 mm 3 mps 757 mmHg 41%
08:00 +22°C° 0 mm 3 mps 757 mmHg 32%
09:00 +26°C° 0 mm 3 mps 757 mmHg 23%
10:00 +28°C° 0 mm 3 mps 757 mmHg 21%
11:00 +29°C° 0 mm 3 mps 757 mmHg 18%
12:00 +31°C° 0 mm 3 mps 756 mmHg 16%
13:00 +33°C° 0 mm 3 mps 756 mmHg 17%
14:00 +33°C° 0 mm 3 mps 755 mmHg 17%
15:00 +33°C° 0 mm 3 mps 754 mmHg 18%
16:00 +30°C° 0 mm 3 mps 754 mmHg 22%
17:00 +27°C° 0 mm 4 mps 755 mmHg 27%
18:00 +25°C° 0 mm 4 mps 755 mmHg 31%
19:00 +25°C° 0 mm 4 mps 755 mmHg 32%
20:00 +25°C° 0 mm 3 mps 755 mmHg 32%
21:00 +24°C° 0 mm 3 mps 755 mmHg 33%
22:00 +24°C° 0 mm 3 mps 755 mmHg 34%
23:00 +24°C° 0 mm 3 mps 755 mmHg 36%

5 March, Friday

Time Temperature Precipitation Wind Pressure Humidity
00:00 +24°C° 0 mm 3 mps 755 mmHg 37%
01:00 +23°C° 0 mm 4 mps 755 mmHg 41%
02:00 +23°C° 0 mm 4 mps 754 mmHg 45%
03:00 +22°C° 0 mm 4 mps 754 mmHg 48%
04:00 +22°C° 0 mm 4 mps 754 mmHg 51%
05:00 +22°C° 0 mm 4 mps 754 mmHg 53%
06:00 +22°C° 0 mm 4 mps 755 mmHg 55%
07:00 +25°C° 0 mm 5 mps 755 mmHg 45%
08:00 +28°C° 0 mm 6 mps 756 mmHg 36%
09:00 +30°C° 0 mm 6 mps 757 mmHg 27%
10:00 +32°C° 0 mm 7 mps 757 mmHg 25%
11:00 +33°C° 0 mm 8 mps 757 mmHg 22%
12:00 +33°C° 0 mm 9 mps 756 mmHg 20%
13:00 +32°C° 0 mm 10 mps 756 mmHg 26%
14:00 +29°C° 0 mm 10 mps 756 mmHg 32%
15:00 +28°C° 0 mm 11 mps 755 mmHg 37%
16:00 +26°C° 0 mm 11 mps 756 mmHg 42%
17:00 +23°C° 0 mm 10 mps 756 mmHg 47%
18:00 +21°C° 0 mm 10 mps 757 mmHg 52%
19:00 +19°C° 0 mm 9 mps 757 mmHg 51%
20:00 +19°C° 0 mm 9 mps 758 mmHg 50%
21:00 +18°C° 0 mm 9 mps 758 mmHg 49%
22:00 +18°C° 0 mm 9 mps 758 mmHg 48%
23:00 +18°C° 0 mm 9 mps 758 mmHg 47%

6 March, Saturday

Time Temperature Precipitation Wind Pressure Humidity
00:00 +18°C° 0 mm 9 mps 758 mmHg 46%
01:00 +18°C° 0 mm 8 mps 758 mmHg 48%
02:00 +18°C° 0 mm 8 mps 758 mmHg 50%
03:00 +18°C° 0 mm 8 mps 758 mmHg 51%
04:00 +18°C° 0 mm 8 mps 758 mmHg 55%
05:00 +17°C° 0 mm 7 mps 759 mmHg 58%
06:00 +17°C° 0 mm 7 mps 759 mmHg 62%
07:00 +20°C° 0 mm 8 mps 759 mmHg 55%
08:00 +21°C° 0 mm 9 mps 760 mmHg 49%
09:00 +23°C° 0 mm 10 mps 760 mmHg 42%
10:00 +23°C° 0 mm 10 mps 760 mmHg 40%
11:00 +24°C° 0 mm 10 mps 760 mmHg 38%
12:00 +26°C° 0 mm 10 mps 759 mmHg 36%
13:00 +26°C° 0 mm 10 mps 759 mmHg 35%
14:00 +26°C° 0 mm 10 mps 758 mmHg 34%
15:00 +24°C° 0 mm 10 mps 758 mmHg 33%
16:00 +23°C° 0 mm 9 mps 758 mmHg 39%
17:00 +21°C° 0 mm 8 mps 758 mmHg 45%
18:00 +18°C° 0 mm 8 mps 758 mmHg 51%
19:00 +18°C° 0 mm 7 mps 758 mmHg 55%
20:00 +17°C° 0 mm 6 mps 759 mmHg 60%
21:00 +16°C° 0 mm 5 mps 759 mmHg 64%
22:00 +16°C° 0 mm 5 mps 759 mmHg 63%
23:00 +16°C° 0 mm 5 mps 758 mmHg 62%
Show more